カタログに戻る

STARLINK-32149

運用中通信VLEO
NORAD 60292·PAYLOAD·🇺🇸 United States

打ち上げ Jul 28, 2024 から Cape Canaveral Space Force Station

Loading…

次のパス (今後24時間)

TLE

最新Source: CelesTrak SupGP

元期: Sep 15, 2026, 02:43 UTC

1 60292C 24132Q   26258.11368056 -.00035760  00000+0 -11498-2 0  2589
2 60292  53.1577 251.5160 0001373  92.2728  30.3892 15.31725079    19

AllMySatでSTARLINK-32149をリアルタイム追跡

Download on the App Store